Regional Weather Roundup
Issued by NWS

Home | Current Version | Previous Version | Text Only | Print | Product List | Glossary Off
Versions: 1 2 3 4 5 6 7 8 9 10 11 12 13 14 15 16 17 18 19 20 21 22 23 24 25 26 27 28 29 30 31 32 33 34 35 36 37 38 39 40 41 42 43 44 45 46 47 48 49 50

000
ASUS45 KBOU 300410
RWRCO

WEATHER ROUNDUP FOR COLORADO
NATIONAL WEATHER SERVICE DENVER/BOULDER CO
1000 PM MDT MON JUN 29 2015

NOTE: "FAIR" INDICATES FEW OR NO CLOUDS BELOW 12000 FEET WITH NO
SIGNIFICANT WEATHER AND/OR OBSTRUCTIONS TO VISIBILITY.

COZ001>005-013-030-031-300500-
...NORTHWEST COLORADO...

CITY           SKY/WX    TMP DP  RH WIND       PRES   REMARKS
CRAIG          PTCLDY    68  47  46 E5        30.23R
HAYDEN         PTCLDY    75  41  29 E8        30.26R
MEEKER         PTCLDY    70  47  43 CALM      30.23R
MOUNT WERNER   NOT AVBL
STEAMBOAT SPGS PTCLDY    73  44  36 NE9       30.29R
WALDEN         CLEAR     61  39  44 N6        30.42R
$$

COZ006>008-011-300500-
...WEST CENTRAL VALLEYS...

CITY           SKY/WX    TMP DP  RH WIND       PRES   REMARKS
GRAND JUNCTION CLEAR     85  41  21 NE9       30.04R
MONTROSE       PTCLDY    82  43  25 E7        30.16R
EAGLE          CLEAR     72  46  40 E10       30.27R
RIFLE          PTCLDY    79  42  26 MISG      30.13R
DELTA          PTCLDY    83  41  22 NE8       30.10R
NUCLA          PTCLDY    77  41  27 E6        30.20R
$$

COZ017>023-064>068-300500-
...SOUTHWEST COLORADO...

CITY           SKY/WX    TMP DP  RH WIND       PRES   REMARKS
DURANGO        CLOUDY    63  54  72 E6        30.26R
CORTEZ         CLEAR     70  50  49 NE5       30.16R
PAGOSA SPRINGS CLOUDY    64  47  53 CALM      30.37R
TELLURIDE      MOCLDY    70  38  32 SE7       30.47R
WOLF CREEK PAS NOT AVBL
$$

COZ009-010-012-014-032>034-037-058>063-300500-
...CENTRAL COLORADO...

CITY           SKY/WX    TMP DP  RH WIND       PRES   REMARKS
ASPEN          CLEAR     64  44  48 SW9       30.36R
BUENA VISTA    CLOUDY    65  49  55 E3        30.44R
COPPER MTN     CLEAR     57  41  54 S14       30.75R
BERTHOUD PASS  FAIR      43  34  70 SE9       30.80R
COTTONWOOD PAS NOT AVBL
GUNNISON       CLEAR     68  45  42 E14       30.40R
KREMMLING      CLEAR     70  41  35 CALM      30.37R
LEADVILLE      PTCLDY    57  41  55 S7        30.57R
MONARCH PASS   PTCLDY    50  41  71 E18       30.83R
SALIDA         CLEAR     64  53  68 CALM      30.48R
SUNLIGHT       CLEAR     61  39  44 CALM      30.65R
WILKERSON PASS CLOUDY    52  39  62 E6        30.73R
$$

COZ069>075-300500-
...SAN LUIS VALLEY/SANGRE DE CRISTO MOUNTAINS...

CITY           SKY/WX    TMP DP  RH WIND       PRES   REMARKS
ALAMOSA        CLEAR     67  46  47 SE8       30.36R
LA VETA PASS   CLEAR     54  43  66 MISG      30.60R
SAGUACHE       PTCLDY    63  52  67 NW7       30.41R
$$

COZ035-036-038>040-300500-
...NORTHERN COLORADO FRONT RANGE...

CITY           SKY/WX    TMP DP  RH WIND       PRES   REMARKS
DENVER INTL AP PTCLDY    68  53  58 SE7       30.23R
DMNS CITY PARK   N/A     76  48  37 N3G10     30.23R
AURORA         PTCLDY    68  53  58 E7        30.25R
FRONT RANGE AP NOT AVBL
ERIE MUNI ARPT PTCLDY    69  54  59 CALM      30.21R
BOULDER MUN AP PTCLDY    73  50  43 W5        30.21R
CENTENNIAL     PTCLDY    73  50  44 SE3       30.26R
BROOMFIELD     PTCLDY    73  48  40 W5        30.25R
FORT COLLINS   CLEAR     75  55  50 SW3       30.19R
LONGMONT       CLEAR     69  52  54 W3        30.22R
$$

COZ041-046-047-076>085-087-088-300500-
...PIKES PEAK/PALMER DIVIDE AND SOUTHERN FOOTHILLS...

CITY           SKY/WX    TMP DP  RH WIND       PRES   REMARKS
COLO. SPRINGS  PTCLDY    70  55  59 SE9       30.32R
A. F. ACADEMY  PTCLDY    62  51  65 N6        30.33R
ELLICOTT       PTCLDY   N/A N/A N/A SE9       30.30R
FALCON         PTCLDY    65  51  59 CALM      30.37R
FORT CARSON    CLOUDY    70  58  65 S5        30.28R
LIMON          PTCLDY    64  59  83 N5        30.24R
MONUMENT HILL  PTCLDY    59  54  82 MISG      30.37R
TRINIDAD       CLEAR     72  52  49 SW13      30.26R
$$

COZ042>045-048>051-090-091-300500-
...NORTHEAST COLORADO...

CITY           SKY/WX    TMP DP  RH WIND       PRES   REMARKS
GREELEY ARPT   CLEAR     73  55  53 SW3       30.18R
AKRON          CLEAR     71  55  56 S7        30.18R
BURLINGTON     CLEAR     66  55  67 SW9       30.15R
WRAY           CLEAR     74  56  52 CALM      30.10R
STERLING       CLEAR     70  59  68 N5        30.12R
HOLYOKE        CLEAR     72  61  68 SE7       30.11R
FORT MORGAN    CLEAR     73  -9   4 E3        30.17R
$$

COZ086-089-092>099-300500-
...SOUTHEAST COLORADO...

CITY           SKY/WX    TMP DP  RH WIND       PRES   REMARKS
PUEBLO         PTCLDY    76  53  44 E5        30.19R
LA JUNTA       CLEAR     74  53  48 E5        30.15R
LAMAR          CLEAR     73  54  51 SE6       30.10R
SPRINGFIELD      N/A     66  52  60 W8        30.18R
$$



USA.gov is the U.S. government's official web portal to all federal, state and local government web resources and services.